Regional Weather Roundup
Issued by NWS

Home | Current Version | Previous Version | Graphics & Text | Print | Product List | Glossary Off
Versions: 1 2 3 4 5 6 7 8 9 10 11 12 13 14 15 16 17 18 19 20 21 22 23 24 25 26 27 28 29 30 31 32 33 34 35 36 37 38 39 40 41 42 43 44 45 46 47 48 49 50

000
ASUS43 KMPX 070910
RWRMN
WEATHER ROUNDUP FOR MINNESOTA
NATIONAL WEATHER SERVICE TWIN CITIES/CHANHASSEN MN
300 AM CST WED DEC 07 2016


NOTE: "FAIR" INDICATES FEW OR NO CLOUDS BELOW 12,000 FEET WITH NO
SIGNIFICANT WEATHER AND/OR OBSTRUCTIONS TO VISIBILITY. N/A MEANS
CURRENT SKY AND/OR WEATHER CONDITIONS ARE NOT AVAILABLE.

MNZ060>063-068>070-071000-
   Twin Cities Metro

CITY           SKY/WX    TMP DP  RH WIND       PRES   REMARKS
TWIN CITIES    FLURRIES  17  10  74 W14G23    29.89R WCI   3
ST PAUL        LGT SNOW  18  13  80 SW14      29.91R WCI   4
CRYSTAL        CLOUDY    18   8  65 W16G25    29.88R WCI   3
BLAINE         FLURRIES  19  12  73 W14G22    29.86R WCI   6
LAKEVILLE      CLOUDY    14  10  85 W13G25    29.93R WCI   0
EDEN PRAIRIE   CLOUDY    17   9  70 W16G25    29.90R WCI   2
SOUTH ST PAUL  FLURRIES  18  11  73 W9G16     29.90R WCI   7
LAKE ELMO      FLURRIES  21  12  68 W20G28    29.87S WCI   6
$$
MNZ001>005-007-008-013>017-022>024-027-028-071000-
   Northwest Minnesota

CITY           SKY/WX    TMP DP  RH WIND       PRES   REMARKS
BEMIDJI        LGT SNOW  16  12  86 W22G31    29.66R WCI  -2
HALLOCK        LGT SNOW  18  16  93 NW30G36   29.71R WCI  -2
ROSEAU         LGT SNOW  21  18  86 W16G24    29.60R WCI   7
WARROAD        FLURRIES  23  19  86 W12       29.57R WCI  12
THIEF RVR FALL LGT SNOW  16  13  88 W26G32    29.72R FOG     WCI  -3
CROOKSTON      LGT SNOW  16  14  93 NW35      29.78R VSB 3/4 WCI  -6
FOSSTON        LGT SNOW  14  10  85 W22G29    29.73R WCI  -4
DETROIT LAKES  LGT SNOW  14  10  85 W21G30    29.80R VSB 1   WCI  -4
MOORHEAD       MIX PCPN  12   7  79 W24G31    29.89R WCI  -8
PARK RAPIDS    LGT SNOW  14   8  77 W20G28    29.73R VSB 1   WCI  -3
$$
MNZ006-009>011-018-025>026-071000-
   North Central Minnesota

CITY           SKY/WX    TMP DP  RH WIND       PRES   REMARKS
BAUDETTE       LGT SNOW  23  20  88 W13       29.53R FOG     WCI  11
FLAG ISLAND    CLOUDY    25  21  86 NW18      29.52R WCI  11
INTL FALLS     LGT SNOW  21  19  92 SW5       29.51R FOG     WCI  15
WASKISH        LGT SNOW  21  19  93 W24G33    29.58R WCI   4
BIG FORK       LGT SNOW  19  16  86 W12G23    29.56R WCI   7
LONGVILLE      LGT SNOW  16  12  86 W14G21    29.69R WCI   1
GRAND RAPIDS   FLURRIES  18  14  84 W14G23    29.64R WCI   4
CRANE LAKE     LGT SNOW  19  18  93 CALM      29.54R
COOK           LGT SNOW  21  18  86 SW12      29.53S WCI   9
$$
MNZ012-019>021-037-071000-
   Northeast Minnesota

CITY           SKY/WX    TMP DP  RH WIND       PRES   REMARKS
DULUTH         FLURRIES  17  12  80 W23G31    29.60R WCI  -1
ELY            LGT SNOW  21  19  93 W5        29.50S WCI  15
HIBBING        LGT SNOW  18  14  84 W9G21     29.58R FOG     WCI   7
EVELETH        LGT SNOW  20  15  82 SW16G25   29.57R WCI   6
DULUTH HARBOR  FLURRIES  23  16  74 SW22G28   29.67R WCI   8
TWO HARBORS    FLURRIES  21  16  79 W15       29.58R WCI   8
SILVER BAY     LGT SNOW  21  18  86 W8        29.55R WCI  12
GRAND MARAIS     N/A     29  24  82 W15       29.54R WCI  18
G MARAIS ARPRT CLOUDY    19  14  79 SW9       29.46S WCI   9
$$
MNZ029>031-032-039>041-046>048-054>057-064-071000-
   West Central Minnesota

CITY           SKY/WX    TMP DP  RH WIND       PRES   REMARKS
FERGUS FALLS   LGT SNOW  10   9  92 NW25G33   29.93R WCI -10
WHEATON        PTCLDY    14   9  79 W21G33    29.96R WCI  -4
MORRIS         LGT SNOW  12   9  85 W21G29    29.92R WCI  -6
ALEXANDRIA     LGT SNOW  11   7  84 W21       29.86R FOG     WCI  -8
ELBOW LAKE     CLOUDY    10   7  85 NW17G25   29.90R WCI  -7
WADENA         LGT SNOW  12   9  85 W13G23    29.78R WCI  -3
GLENWOOD       LGT SNOW  12   9  85 W22G31    29.88R WCI  -7
APPLETON       MOCLDY    14   7  73 W22G28    29.96S WCI  -4
BENSON         FLURRIES  14   7  73 NW22G32   29.93S WCI  -4
ORTONVILLE     PTCLDY    12   5  73 W16G25    29.96R WCI  -4
MADISON        CLEAR     14   7  73 W21G30    30.00R WCI  -4
WILLMAR        CLOUDY    16  10  79 W24       29.94R WCI  -3
$$
MNZ033>034-036-042>043-049>051-058-059-071000-
   Central Minnesota

CITY           SKY/WX    TMP DP  RH WIND       PRES   REMARKS
ST CLOUD       CLOUDY    15   9  76 W20       29.85R WCI  -2
PAYNESVILLE    FLURRIES  14  10  82 W22       29.89R WCI  -4
AITKIN         FLURRIES  18   9  68 SW10G22   29.71R WCI   6
PINE RIVER     FLURRIES  14   9  79 W10G18    29.76R WCI   1
BRAINERD       LGT SNOW  14   9  80 W17       29.76R WCI  -3
STAPLES        LGT SNOW  10   9  92 W18G25    29.78R WCI  -8
LONG PRAIRIE   LGT SNOW  12   9  85 SW16G24   29.84R WCI  -4
LITTLE FALLS   FLURRIES  14   9  79 W14G23    29.83R WCI  -1
LITCHFIELD     CLOUDY    16  10  79 W18G28    29.90R WCI  -1
BUFFALO        MOCLDY    17   9  72 W17G26    29.90R WCI   1
MAPLE LAKE     CLOUDY    17  11  77 W15G23    29.89R WCI   3
HUTCHINSON     CLOUDY    16  11  80 W21G26    29.93R WCI  -2
$$
MNZ037-044-045-052-053-071000-
   East Central Minnesota

CITY           SKY/WX    TMP DP  RH WIND       PRES   REMARKS
PRINCETON      FLURRIES  16  10  79 SW15G22   29.84R WCI   1
MORA           PTCLDY    18  10  73 W16G23    29.80R WCI   3
CAMBRIDGE      FLURRIES  18   9  68 W15       29.81S WCI   3
RUSH CITY      CLOUDY    18  10  73 W16G25    29.81R WCI   3
MOOSE LAKE     CLOUDY    19  12  73 W15G23    29.69R WCI   5
HINCKLEY       FLURRIES  19  12  73 W20G29    29.76S WCI   4
CLOQUET        FLURRIES  18  10  73 SW14G20   29.65R WCI   4
MCGREGOR       CLOUDY    18  12  79 W10G23    29.70R WCI   6
$$
MNZ071>073-080-081-089-090-097-098-071000-
   Southwest Minnesota

CITY           SKY/WX    TMP DP  RH WIND       PRES   REMARKS
MONTEVIDEO     PTCLDY    14   7  73 NW17G25   29.99R WCI  -3
GRANITE FALLS  CLEAR     14   8  76 W20       30.01R WCI  -3
CANBY          CLEAR     12   6  75 NW22G33   30.01S WCI  -7
MARSHALL       CLEAR     11   5  77 W18G30    30.01R WCI  -7
REDWOOD FALLS  CLEAR     13   5  70 W20       29.98R WCI  -5
OLIVIA         CLEAR     16  10  79 W17       29.96R WCI   0
PIPESTONE      CLEAR      9   3  78 NW24G31   30.03R WCI -12
WINDOM         CLEAR     10   7  85 W18G26    30.01R WCI  -8
WORTHINGTON    PTCLDY     9   5  84 W24       30.04R WCI -12
JACKSON        CLEAR     10   5  79 W20G30    30.03R WCI  -8
TRACY          CLEAR     12   7  79 W13G22    30.01R WCI  -3
SLAYTON        CLEAR      9   4  81 W22G33    30.01R WCI -11
$$
MNZ065>067-074>077-082>085-091>093-071000-
   South Central Minnesota

CITY           SKY/WX    TMP DP  RH WIND       PRES   REMARKS
MANKATO        FLURRIES  14   8  77 W21G26    29.98R WCI  -4
NEW ULM        CLOUDY    12   7  79 W16       29.99R WCI  -4
ST JAMES       CLEAR     14   9  79 W20       30.03R WCI  -3
FAIRMONT       CLEAR     13   7  77 W23G30    30.03R WCI  -6
GLENCOE        CLOUDY    17  12  83 W14G24    29.94R WCI   2
FARIBAULT      CLOUDY    16  10  79 W17G28    29.96R WCI   0
OWATONNA       FLURRIES  16   9  73 W18G25    29.97R WCI  -1
WASECA         CLOUDY    14  10  85 W17G28    30.00R WCI  -3
ALBERT LEA     PTCLDY    18  12  79 W14       29.98S WCI   4
$$
MNZ078>079-086>088-094>096-071000-
   Southeast Minnesota

CITY           SKY/WX    TMP DP  RH WIND       PRES   REMARKS
ROCHESTER      FLURRIES  14   9  80 W24G31    29.93R WCI  -5
RED WING       PTCLDY    18   9  68 W20G26    29.92R WCI   1
STANTON        MOCLDY    17  10  75 SW17G23   29.94R WCI   1
DODGE CENTER   FLURRIES  14  10  85 W22G29    29.94R WCI  -4
WINONA         CLOUDY    19  12  73 W10G21    29.97R WCI   8
AUSTIN         PTCLDY    14   9  79 W13G25    29.98R WCI   0
PRESTON        LGT SNOW  13   8  79 W18G25    29.97R WCI  -4
$$
ABBREVIATIONS USED IN REMARKS
   TC - TEMPERATURES IN CELSIUS
  WCI - WIND CHILL INDEX
   HX - HEAT INDEX
  VSB - VISIBILITY
$$




USA.gov is the U.S. government's official web portal to all federal, state and local government web resources and services.